• MPC Preparation (Info)

  • MPEC 2011-V04 : 2011 UZ275

    The following Minor Planet Electronic Circular may be linked-to from your own Web pages, but must not otherwise be redistributed electronically.

    A form allowing access to any MPEC is at the bottom of this page.


    Read MPEC 2011-V03 Read MPEC 2011-V05


    M.P.E.C. 2011-V04                                Issued 2011 Nov. 1, 19:50 UT
    
         The Minor Planet Electronic Circulars contain information on unusual
             minor planets and routine data on comets.  They are published
       on behalf of Commission 20 of the International Astronomical Union by the
              Minor Planet Center, Smithsonian Astrophysical Observatory,
                              Cambridge, MA 02138, U.S.A.
    
                 Prepared using the Tamkin Foundation Computer Network
    
                                  MPC@CFA.HARVARD.EDU
                URL https://www.minorplanetcenter.net/    ISSN 1523-6714
    
                                      2011 UZ275
    
    Observations:
         K11UR5Z* C2011 10 31.29296 02 29 39.30 -24 56 33.5          18.4 VrEV004703
         K11UR5Z  C2011 10 31.29916 02 29 38.90 -24 55 51.8          18.5 VrEV004703
         K11UR5Z  C2011 10 31.30531 02 29 38.47 -24 55 09.7          18.7 VrEV004703
         K11UR5Z  C2011 10 31.31154 02 29 38.04 -24 54 26.6          18.4 VrEV004703
         K11UR5Z  C2011 10 31.32101 02 29 37.42 -24 53 21.9          18.6 VrEV004703
         K11UR5Z  C2011 10 31.32468 02 29 37.14 -24 52 57.5          18.4 VrEV004703
         K11UR5Z  C2011 10 31.32839 02 29 36.92 -24 52 31.4          18.5 VrEV004703
         K11UR5Z  C2011 10 31.33219 02 29 36.60 -24 52 05.9          18.5 VrEV004703
         K11UR5Z  C2011 10 31.59959 02 29 33.97 -24 21 28.5          18.7 VuEV004900
         K11UR5Z  C2011 10 31.60711 02 29 33.46 -24 20 37.4          18.3 VuEV004900
         K11UR5Z  C2011 10 31.61424 02 29 33.03 -24 19 47.1          18.2 VuEV004900
         K11UR5Z `C2011 10 31.65715 02 29 29.52 -24 12 33.7          18.1 RuEV004D90
         K11UR5Z `C2011 10 31.66344 02 29 29.11 -24 11 49.2          17.8 RuEV004D90
         K11UR5Z `C2011 10 31.66969 02 29 28.71 -24 11 05.4          18.1 RuEV004D90
         K11UR5Z  C2011 10 31.88212 02 29 27.56 -23 48 42.9          17.9 RuEV004B18
         K11UR5Z  C2011 10 31.88420 02 29 27.46 -23 48 28.6          18.1 RuEV004B18
         K11UR5Z  C2011 10 31.89122 02 29 27.02 -23 47 39.3          17.9 RuEV004B18
         K11UR5Z |C2011 11 01.09067 02 29 28.78 -23 21 41.0          18.5 VoEV004807
         K11UR5Z |C2011 11 01.09348 02 29 28.62 -23 21 21.5          18.8 VoEV004807
         K11UR5Z |C2011 11 01.09630 02 29 28.44 -23 21 01.8          18.8 VoEV004807
         K11UR5Z |C2011 11 01.09918 02 29 28.26 -23 20 41.7          18.7 VoEV004807
         K11UR5Z |C2011 11 01.10204 02 29 28.09 -23 20 21.6          18.8 VoEV004807
         K11UR5Z |C2011 11 01.10496 02 29 27.91 -23 20 01.1          18.7 VoEV004807
         K11UR5Z KC2011 11 01.19860002 29 24.63 -23 11 05.3          18.2 RuEV004H36
         K11UR5Z KC2011 11 01.20332302 29 24.36 -23 10 32.1          18.0 RuEV004H36
         K11UR5Z KC2011 11 01.20569102 29 24.25 -23 10 14.9          18.0 RuEV004H36
    
    Observer details:
    703 Catalina Sky Survey.  Observer R. E. Hill.  Measurers J. D. Ahern,
        E. C. Beshore, A. Boattini, G. J. Garradd, A. R. Gibbs, P. Tricarico,
        A. D. Grauer, R. E. Hill, R. A. Kowalski, S. M. Larson, R. H. McNaught.
        0.68-m Schmidt + CCD.
    807 Cerro Tololo.  Observers R. Holmes, T. Linder, V. Hoette.  Measurers
        R. Holmes, T. Linder.  0.41-m f/11 Ritchey-Chretien + CCD.
    900 Moriyama.  Observer Y. Ikari.  0.26-m f/7.0 reflector + CCD.
    B18 Terskol.  Observers M. Andreev, A. Sergeev, N. Parakhin, V. Kozlov,
        N. Karpov.  Measurer M. Andreev.  0.6-m f/12.8 Cassegrain + CCD.
    D90 RAS Observatory, Moorook.  Observer K. Hills.  0.41-m f/9 Ritchey-Chretien
        + CCD.
    H36 Sandlot Observatory, Scranton.  Observer G. Hug.  0.56-m reflector + CCD.
    
    Orbital elements:
    2011 UZ275                                               Earth MOID = 0.0561 AU
    Epoch 2011 Aug. 27.0 TT = JDT 2455800.5                 MPC
    M 310.95932              (2000.0)            P               Q
    n   0.67562101     Peri.  351.76143     +0.71970177     -0.68443188
    a   1.2862754      Node    52.10628     +0.64511434     +0.59719760
    e   0.1870987      Incl.    8.49261     +0.25662589     +0.41822007
    P   1.46           H   22.8           G   0.15           U   7
    Residuals in seconds of arc
    111031 703  0.4-  0.1+    111031 900  0.1-  0.2-    111101 807  0.3+  0.1-
    111031 703  0.0   0.3-    111031 900  0.6+  0.7+    111101 807  0.2+  0.1-
    111031 703  0.1-  0.1-    111031 D90  0.1+  0.0     111101 807  0.2+  0.1-
    111031 703  0.1-  0.4+    111031 D90  0.1+  0.1+    111101 807  0.3+  0.0
    111031 703  0.3+  0.3+    111031 D90  0.2+  0.3-    111101 807  0.4+  0.1+
    111031 703  0.1-  0.5-    111031 B18  0.4-  0.0     111101 H36  0.8-  0.1+
    111031 703  0.4+  0.2+    111031 B18  0.0   0.3-    111101 H36  0.5-  0.1-
    111031 703  0.5-  0.5-    111031 B18  0.0   0.6-    111101 H36  0.1+  0.3+
    111031 900  0.1-  0.7+    111101 807  0.1+  0.0
    
    Ephemeris:
    2011 UZ275               a,e,i = 1.29, 0.19, 8                   q = 1.0456
    Date    TT    R. A. (2000) Decl.     Delta      r     Elong.  Phase     V
    2011 10 02    02 24 48.3 -48 21 16   0.1319  1.0780   122.7    51.4    20.5
    ...
    2011 10 17    02 31 36.8 -42 24 45   0.09691 1.0572   126.4    49.3    19.7
    ...
    2011 10 25    02 31 17.9 -34 44 50   0.07970 1.0502   132.7    44.1    19.1
    ...
    2011 10 31    02 29 44.2 -25 27 49   0.06879 1.0470   140.6    37.0    18.6
    2011 11 01    02 29 25.7 -23 32 55   0.06724 1.0467   142.2    35.5    18.5
    2011 11 02    02 29 06.9 -21 31 20   0.06579 1.0464   144.0    33.9    18.4
    ...
    2011 11 08    02 27 20.3 -07 08 39   0.05960 1.0456   155.8    22.8    17.9
    ...
    2011 11 16    02 25 59.8 +15 09 22   0.05994 1.0473   166.0    13.2    17.6
    ...
    2011 12 01    02 31 47.5 +45 03 55   0.08575 1.0591   146.9    30.5    18.9
    
    A. U. Tomatic                (C) Copyright 2011 MPC           M.P.E.C. 2011-V04
    

    Read MPEC 2011-V03 Read MPEC 2011-V05


    MPEC number:

    Enter an MPEC number in one of the following forms:

    • 1997-B01 (the full form)
    • J97B01 (the packed version of the full form)
    • B01 (the abbreviated form)